Location: Lake_James_State_Park
(35.7270°N, 81.9020°W)
Time: 11:51:53
(UTC-04:00)

Daily predictions for brighter satellites

Satellite Brightness Start Highest point End
(mag) Time Altitude Azimuth Time Altitude Azimuth Time Altitude Azimuth
ASTRO E2 4.4 21:12:43 10° WSW 21:15:49 21° SSW 21:18:56 10° SSE
Cosmos 1743 Rocket 4.1 21:11:48 10° SSE 21:15:58 40° E 21:20:09 10° NNE
Resurs 01 Rocket 4.1 21:13:11 10° SSW 21:16:38 22° W 21:20:06 10° NW
Cosmos 1500 Rocket 4.4 21:18:57 10° SSE 21:22:47 31° E 21:26:40 10° NNE
USA 186 1.8 21:20:51 10° S 21:23:09 52° W 21:25:30 10° NNW
Cosmos 2221 3.2 21:21:39 10° NNW 21:25:50 56° W 21:30:01 10° S
deb Chang Zheng 4 3.8 21:23:37 10° NNE 21:27:49 49° E 21:32:02 10° S
BREEZE M DEB (TANK) 1.4 21:27:32 10° WNW 21:29:26 59° SSW 21:32:06 11° SE
Cosmos 1441 Rocket 3.5 21:30:07 10° SSE 21:33:44 43° E 21:37:19 10° NNE
Cosmos 1766 Rocket 4.3 21:31:07 10° SSW 21:35:28 56° W 21:39:49 10° N
ATLAS CENTAUR R/B 1.4 21:32:18 10° NNW 21:36:51 85° ENE 21:40:43 11° SSE
Delta 2 Rocket 3.4 21:34:04 10° SW 21:37:26 38° SSE 21:40:36 10° E
CZ-2C R/B 0.1 21:36:47 18° SE 21:37:48 41° ENE 21:39:28 10° N
SJ-11-01 4.3 21:34:12 10° SSE 21:38:53 74° ENE 21:43:36 10° N
Cosmos 1538 Rocket 4.3 21:35:16 10° N 21:40:31 56° ENE 21:45:23 12° SSE
Cosmos 2322 Rocket 2.3 21:35:32 10° NNW 21:41:08 66° ENE 21:46:21 12° SSE
SL-16 R/B 2.2 21:44:45 10° NNW 21:50:26 74° ENE 21:55:22 14° SSE
Cosmos 1980 Rocket 3.5 21:46:06 10° NW 21:51:15 37° WSW 21:56:25 10° S
Cosmos 2360 Rocket 3.4 21:47:02 10° N 21:51:54 29° ENE 21:55:40 15° ESE
Cosmos 1939 Rocket 2.8 21:48:28 12° SSE 21:52:08 71° ENE 21:56:03 10° N
Cosmos 1515 Rocket 3.6 21:48:50 10° N 21:53:13 61° E 21:56:54 14° SSE
AVUM R/B 2.8 21:52:34 23° SSE 21:53:32 36° ESE 21:55:46 10° NE
In-Cosmos 22 4.4 21:49:11 10° S 21:54:56 82° W 22:00:44 10° N
Cosmos 1908 4.0 21:51:40 10° NNE 21:55:17 36° E 21:57:32 19° SE
CZ-4B R/B 4.3 21:51:05 10° NNE 21:55:51 34° E 21:59:35 15° SSE
Cosmos 2266 Rocket 4.1 21:50:07 10° SSE 21:56:16 56° E 22:02:21 10° NNE
H-2A R/B 2.6 21:57:00 10° SSW 21:57:30 11° S 21:57:30 11° S
Cosmos 1553 Rocket 4.1 21:53:55 10° N 22:00:21 86° W 22:06:40 10° S
Nimbus 7 Rocket 4.3 21:54:47 10° NNE 22:00:40 83° ESE 22:06:32 10° SSW
USA 229 DEB 3.7 21:55:19 10° SSW 22:02:14 89° WNW 22:09:15 10° NNE
USA 229 3.7 21:55:25 10° SSW 22:02:20 90° SE 22:09:21 10° NNE
Meteor 2-2 Rocket 4.4 22:00:47 10° N 22:06:46 71° E 22:11:41 16° SSE
Cosmos 773 Rocket 4.2 22:02:14 10° N 22:07:21 56° ENE 22:10:40 21° SE
MetOp-B 4.4 22:06:26 19° SE 22:10:07 55° ENE 22:15:21 10° N
Cosmos 2151 3.1 22:10:12 20° SSE 22:12:52 51° E 22:16:57 10° NNE
Cosmos 1674 2.6 22:09:53 14° S 22:13:04 78° E 22:16:55 10° N
Terra 3.9 22:12:30 11° E 22:14:12 13° ENE 22:16:23 10° NE
CZ-4 SHROUD 3.1 22:14:02 32° SSE 22:15:20 73° ENE 22:18:29 10° N
Cosmos 1833 4.2 22:11:05 10° SSW 22:16:49 87° ESE 22:22:32 10° NNE
Cosmos 1437 Rocket 2.6 22:14:35 10° N 22:18:24 87° W 22:20:37 24° S
Cosmos 1805 Rocket 4.3 22:17:06 26° SE 22:18:39 34° E 22:22:41 10° NNE
NOSS 3-1 (A) 4.1 22:20:04 23° SE 22:22:13 30° ESE 22:27:30 10° NE
GPS 2-04 Rocket1 3.6 22:18:32 10° W 22:22:34 37° SSW 22:23:58 29° SSE
Cosmos 1151 Rocket 2.9 22:18:56 10° N 22:23:15 76° E 22:25:32 27° SSE
Cosmos 1300 4.0 22:21:33 10° NNE 22:24:42 23° ENE 22:25:08 23° E
OAO 2 Rocket 4.2 22:20:31 10° SSW 22:25:00 28° SSE 22:25:25 28° SE
CZ-4 R/B 4.2 22:21:39 10° NNE 22:26:25 46° E 22:28:34 28° SSE
Nadezhda 2 Rocket 4.4 22:28:44 17° S 22:33:36 74° E 22:39:42 10° N
COSMOS 2428 3.8 22:29:13 10° N 22:34:13 31° ENE 22:36:34 23° E
Envisat 3.7 22:30:38 15° S 22:34:43 50° W 22:39:40 10° NNW
H-2A R/B 3.6 22:31:03 10° SSW 22:35:03 33° W 22:39:10 10° NNW
Cosmos 1328 3.6 22:34:24 30° S 22:36:16 86° E 22:40:14 10° N
Cosmos 1707 Rocket 4.1 22:35:44 10° N 22:39:51 40° E 22:40:39 36° ESE
Cosmos 1666 Rocket 3.9 22:39:51 39° ESE 22:40:39 44° E 22:44:50 10° NNE
DELTA 2 R/B (1) 3.7 22:37:01 10° WNW 22:42:35 71° NNE 22:45:57 24° E
Cosmos 2298 Rocket 4.3 22:41:52 34° SSE 22:43:37 47° ESE 22:48:42 10° NNE
Cosmos 2058 2.7 22:42:56 43° SSE 22:44:11 73° E 22:48:16 10° N
ATLAS 2AS CENTAUR R/B 4.2 22:45:18 20° E 22:45:18 20° E 22:50:13 10° ENE
Cosmos 2112 Rocket 4.1 22:40:42 10° N 22:45:55 65° ENE 22:47:48 39° SE
YAOGAN 6 2.8 22:46:03 43° SSW 22:47:04 67° W 22:50:41 10° NNW
SPOT 5 3.7 22:45:54 20° SSW 22:48:36 43° W 22:53:03 10° NNW
Cosmos 1437 4.1 22:52:16 24° SW 22:53:41 38° WNW 22:56:47 10° N
Cosmos 405 4.3 22:51:11 10° NNW 22:54:34 37° W 22:55:47 28° SW
Cosmos 2219 Rocket 3.7 22:50:31 10° N 22:54:52 22° ENE 22:56:41 19° E
Cosmos 1937 Rocket 4.1 22:56:44 36° ESE 22:56:52 36° E 23:01:37 10° NE
ARGOS 3.1 22:55:49 38° SSE 22:58:00 90° WSW 23:03:26 10° NNW
H-2A R/B 2.5 23:00:41 40° ESE 23:02:00 48° ENE 23:07:11 10° N
SL-14 R/B 3.1 23:05:20 78° S 23:05:35 87° E 23:09:34 10° N
Cosmos 1703 4.0 23:07:24 39° ENE 23:07:24 39° ENE 23:10:24 10° NNE
IGS 5A 4.2 23:07:27 38° ENE 23:07:27 38° ENE 23:11:17 10° N
Cosmos 2219 3.5 23:02:09 10° SSW 23:07:50 66° WNW 23:13:34 10° NNE
SL-08 RB Rocket 3.6 23:08:39 56° S 23:09:32 78° WSW 23:14:01 10° NNW
NOSS 3-1 (C) 3.3 23:04:28 10° SSW 23:10:15 85° WNW 23:16:39 10° NNE
Meteor 1-27 4.1 23:05:07 10° N 23:10:50 87° E 23:12:32 47° S
SPOT 1/Viking Rocket 4.1 23:12:06 32° SSW 23:14:06 50° W 23:19:06 10° NNW
Cosmos 1271 Rocket 3.5 23:11:47 10° N 23:14:50 41° NE 23:14:50 41° NE
Cosmos 2242 Rocket 3.6 23:12:03 10° N 23:16:28 62° E 23:16:33 62° E
DELTA 2 DEB (DPAF) 4.0 23:16:07 69° S 23:16:40 86° WSW 23:21:10 10° NNW
Cosmos 2333 4.5 23:11:34 10° NNW 23:17:12 55° ENE 23:18:26 46° ESE
Cosmos 2322 4.2 23:13:32 10° NNW 23:19:03 52° WSW 23:20:54 37° SSW
Cosmos 2082 4.4 23:21:49 36° E 23:21:49 36° E 23:26:26 10° NE
Cosmos 2237 Rocket 3.6 23:17:16 10° N 23:21:55 25° ENE 23:23:15 23° E
Cosmos 1726 2.4 23:19:03 10° N 23:22:28 68° NW 23:22:28 68° NW
Cosmos 1680 Rocket 4.2 23:18:23 10° NNW 23:23:22 45° WSW 23:24:52 36° SW
Iridium 2 4.2 23:28:43 56° NNE 23:28:43 56° NNE 23:31:49 10° N
Cosmos 2150 Rocket 4.3 23:31:21 36° SW 23:33:31 67° WNW 23:38:58 10° NNE
Cosmos 1898 Rocket 3.7 23:33:17 40° SW 23:35:00 64° WNW 23:40:10 10° N
Landsat 7 4.0 23:35:02 56° SW 23:35:32 59° W 23:40:14 10° NNW
Cosmos 2360 Rocket 3.3 23:30:48 10° NW 23:35:53 35° WSW 23:37:27 30° SW
CARTOSAT-1 3.6 23:37:19 75° WNW 23:37:19 75° WNW 23:41:27 10° NNW
Cosmos 1862 Rocket 4.4 23:33:55 10° N 23:37:19 40° NE 23:37:19 40° NE
DMSP B5D2-2 4.1 23:36:12 10° N 23:41:25 73° WNW 23:42:27 56° SW
Cosmos 1633 Rocket 4.1 23:42:16 36° WSW 23:43:02 39° W 23:47:10 10° N
Sich 1 4.3 23:42:31 33° WSW 23:43:29 37° W 23:47:35 10° N
Spot 4 3.7 23:44:36 88° NE 23:44:36 88° NE 23:49:27 10° NNW
Terra 2.1 23:51:23 59° W 23:51:23 59° W 23:56:06 10° NNW
Cosmos 292 Rocket 3.8 23:50:02 10° NNW 23:54:22 73° NNW 23:54:22 73° NNW
